星链-30414 (STARLINK-30414 )

导读

STARLINK-30414是美国SpaceX公司星链星座的一员,于2023年9月12日发射升空。星链项目旨在通过低轨卫星星座,为全球缺乏传统基础设施的偏远地区提供高速、低延迟的宽带互联网服务。作为大规模组网卫星中的一颗,它助力SpaceX实现全球覆盖的卫星互联网目标,单颗星链卫星设计寿命超过5年,目前该星系统计在轨服役卫星已超九千颗。

基本信息
目录编号:
57859
目录名称:
STARLINK-30414
国际标识:
2023-141V
轨道中心:
EARTH
卫星名称:
星链-30414
卫星全名:
星链-30414 (STARLINK-30414 )
卫星状态:
在轨 (已飞行1010 天)
发射日期:
2023-09-12 UTC
国别 :
美国 (US)
星等 :
--
轨道信息
数据来源 国际轨道数据 AOE轨道数据
星历时间 2026-06-17T15:27:19+0800
1天前
查看轨道信息
2026-06-17T07:00:00+0800
1天前
查看轨道信息
半长轴 6853.366km 6853.372km
偏心率 0.0001213 0.0001055
轨道倾角 53.160° 53.158°
近地点辐角 80.583° 103.932°
升交点赤经 181.164° 182.800°
平近点角 279.531° 114.342°
近地点 474.397km 474.511km
远地点 476.061km 475.959km
周期 94.106分钟 94.106分钟
每日圈数 15.301954 15.301936
详细信息
固有亮度:
5
最大亮度:
0.3
卫星平台:
Starlink v2.0 mini
覆盖范围:
全球
运营商:
太空探索技术公司
运营商所在国:
美国
制造商(研发单位):
太空探索技术公司
制造商所在国:
美国
使用方式:
暂无
卫星简介
星链(Starlink)计划是由太空探索技术公司(SpaceX)提出的一个巨型低轨卫星互联网星座项目,计划在2019年至2024年间在太空搭建由约1.2万颗卫星组成的“星链”网络,其中1584颗将部署在地球上空550千米处的近地轨道,并从2020年开始工作。该卫星仍在工作。
2D轨道图
3D轨道图
轨道高度分析图
轨道倾角分析图
轨道综合分析图
查看轨道综合分析图